Regional Weather Roundup
Issued by NWS

Home | Current Version | Previous Version | Graphics & Text | Print | Product List | Glossary On
Versions: 1 2 3 4 5 6 7 8 9 10 11 12 13 14 15 16 17 18 19 20 21 22 23 24 25 26 27 28 29 30 31 32 33 34 35 36 37 38 39 40 41 42 43 44 45 46 47 48 49 50
000
ASUS43 KTOP 011359
RWRKS

WEATHER ROUNDUP FOR KANSAS
NATIONAL WEATHER SERVICE GOODLAND KS
900 AM CDT TUE SEP 01 2015

NOTE:  "FAIR" INDICATES FEW OR NO CLOUDS BELOW 12,000 FEET WITH NO
SIGNIFICANT WEATHER AND/OR OBSTRUCTIONS TO VISIBILITY.

KSZ001>006-013>018-027>032-041>047-011500-
NORTHWEST KANSAS

CITY           SKY/WX    TMP DP  RH WIND       PRES   REMARKS
GOODLAND       MOSUNNY   66  60  81 W8        30.02R
HAYS           MOSUNNY   77  57  50 S16       29.96S
HILL CITY      LGT RAIN  70  62  76 SW7       29.96S
RUSSELL        MOSUNNY   78  61  55 S18       29.95R
$$

KSZ061>065-074>080-084>089-011500-
SOUTHWEST KANSAS

CITY           SKY/WX    TMP DP  RH WIND       PRES   REMARKS
DODGE CITY     SUNNY     72  60  66 S15G22    29.99S
ELKHART          N/A     70  58  66 SE5         N/A
GARDEN CITY    MOSUNNY   71  57  61 SW8       29.99S
GREAT BEND     SUNNY     79  61  53 S18G25    29.96F
LIBERAL        MOSUNNY   72  57  60 S10       30.03R
$$

KSZ066>073-081>083-090>101-011500-
SOUTHEAST KANSAS

CITY           SKY/WX    TMP DP  RH WIND       PRES   REMARKS
CHANUTE        SUNNY     75  69  81 S9        30.05S
COFFEYVILLE    SUNNY     74  69  85 S8        30.05S
HUTCHINSON     SUNNY     76  63  64 S10       30.01S
NEWTON         SUNNY     75  61  60 S15G22    30.04F
PARSONS        SUNNY     75  69  81 S7        30.06S
WICHITA INTL   MOSUNNY   76  64  66 S14       30.01F
WICHITA JABRA  SUNNY     76  64  66 S13       30.02S
WINFIELD       SUNNY     77  65  66 S9        30.04S
$$

KSZ007>012-019>026-033>040-048>060-102>105-011500-
NORTHEAST KANSAS

CITY           SKY/WX    TMP DP  RH WIND       PRES   REMARKS
CONCORDIA      MOSUNNY   74  63  68 S17G24    29.96S
EMPORIA        SUNNY     74  66  76 S12       30.02S
LAWRENCE       SUNNY     76  69  79 SE6       30.02F
MANHATTAN      SUNNY     77  65  66 SW12      29.98S
OLATHE IND     PTSUNNY   76  69  79 S9        30.05S
OLATHE EXE     SUNNY     74  69  85 S6        30.04S
SALINA         SUNNY     77  63  61 S15       29.98R
TOPEKA BILLARD MOSUNNY   76  68  76 S6        30.01S
TOPEKA FORBES  SUNNY     77  68  73 S9        30.01F
$$


USA.gov is the U.S. government's official web portal to all federal, state and local government web resources and services.